This demonstration page uses our WeatherBlox Daily Observations layout. Learn more.

Hourly Observations for January 14, 2019

Temp ( °F °C ) Dew Point ( °F °C ) Humidity (%) Winds ( mph kmh ) Pressure ( in mb ) Visibility ( mi km ) Precip ( " mm )
12:15 am 00:15 Cloudy with Light Snow 28 -2 28 -2 100 100 NNE 6 9 30.3 1026 7 11.265408 0 0
12:35 am 00:35 Cloudy with Light Snow 28 -2 28 -2 100 100 N 5 7 30.3 1026 10 16.09344 0 0
12:55 am 00:55 Cloudy with Light Snow 28 -2 28 -2 100 100 N 5 7 30.3 1026 7 11.265408 0 0
1:15 am 01:15 Cloudy 28 -2 28 -2 100 100 N 5 7 30.3 1026 10 16.09344 0 0
1:35 am 01:35 Cloudy 28 -2 28 -2 100 100 Calm 30.3 1026 10 16.09344 0 0
1:55 am 01:55 Cloudy 28 -2 27 -3 93 93 NNW 3 6 30.3 1026 10 16.09344 0 0
2:15 am 02:15 Cloudy 27 -3 27 -3 100 100 NW 3 6 30.3 1026 10 16.09344 0 0
2:35 am 02:35 Cloudy 27 -3 27 -3 100 100 WNW 3 6 30.3 1026 10 16.09344 0 0
2:55 am 02:55 Cloudy 27 -3 27 -3 100 100 NNW 3 6 30.3 1026 10 16.09344 0 0
3:15 am 03:15 Cloudy 28 -2 28 -2 100 100 NNW 6 9 30.3 1026 10 16.09344 0 0
3:35 am 03:35 Cloudy 27 -3 27 -3 100 100 NNW 5 7 30.3 1026 10 16.09344 0 0
3:55 am 03:55 Cloudy 28 -2 27 -3 93 93 NNW 6 9 30.3 1026 10 16.09344 0 0
4:15 am 04:15 Cloudy 28 -2 27 -3 93 93 NNW 5 7 30.3 1026 10 16.09344 0 0
4:35 am 04:35 Cloudy 28 -2 27 -3 93 93 N 5 7 30.3 1026 10 16.09344 0 0
4:55 am 04:55 Cloudy 28 -2 27 -3 93 93 N 5 7 30.3 1026 10 16.09344 0 0
5:15 am 05:15 Cloudy 30 -1 27 -3 86 86 N 5 7 30.3 1026 10 16.09344 0 0
5:35 am 05:35 Cloudy 28 -2 27 -3 93 93 N 5 7 30.3 1026 10 16.09344 0 0
5:55 am 05:55 Cloudy 28 -2 27 -3 93 93 N 5 7 30.3 1026 10 16.09344 0 0
6:15 am 06:15 Cloudy 28 -2 27 -3 93 93 N 6 9 30.3 1026 10 16.09344 0 0
6:35 am 06:35 Cloudy 28 -2 23 -5 80 80 NNE 6 9 30.3 1026 10 16.09344 0 0
6:55 am 06:55 Cloudy 28 -2 21 -6 74 74 N 6 9 30.3 1026 10 16.09344 0 0
7:15 am 07:15 Cloudy 28 -2 21 -6 74 74 NNE 5 7 30.3 1026 10 16.09344 0 0
7:35 am 07:35 Cloudy 28 -2 23 -5 80 80 NW 3 6 30.3 1026 10 16.09344 0 0
7:55 am 07:55 Cloudy 28 -2 25 -4 86 86 NNW 3 6 30.3 1026 10 16.09344 0 0
8:15 am 08:15 Cloudy 28 -2 23 -5 80 80 NNW 5 7 30.3 1026 10 16.09344 0 0
8:35 am 08:35 Cloudy 30 -1 23 -5 75 75 NNE 6 9 30.33 1027 10 16.09344 0 0
8:55 am 08:55 Cloudy 30 -1 21 -6 69 69 NNE 6 9 30.33 1027 10 16.09344 0 0
9:15 am 09:15 Cloudy 30 -1 21 -6 69 69 NNE 7 11 30.33 1027 10 16.09344 0 0
9:35 am 09:35 Cloudy 30 -1 23 -5 75 75 NNE 7 11 30.33 1027 10 16.09344 0 0
9:55 am 09:55 Cloudy 30 -1 21 -6 69 69 NNE 9 15 30.33 1027 10 16.09344 0 0
10:15 am 10:15 Cloudy 30 -1 21 -6 69 69 NE 10 17 30.33 1027 10 16.09344 0 0
10:35 am 10:35 Cloudy 30 -1 21 -6 69 69 NE 7 11 30.33 1027 10 16.09344 0 0
10:55 am 10:55 Cloudy 30 -1 21 -6 69 69 NE 3 6 30.33 1027 10 16.09344 0 0
11:15 am 11:15 Cloudy 32 0 21 -6 64 64 N 6 9 30.33 1027 10 16.09344 0 0
11:35 am 11:35 Cloudy 30 -1 19 -7 64 64 N 7 11 30.33 1027 10 16.09344 0 0
11:55 am 11:55 Partly Cloudy 32 0 19 -7 60 60 NNE 6 9 30.3 1026 10 16.09344 0 0
12:15 pm 12:15 Sunny 32 0 21 -6 64 64 NE 5 7 30.3 1026 10 16.09344 0 0
12:35 pm 12:35 Sunny 32 0 21 -6 64 64 Calm 30.3 1026 10 16.09344 0 0
12:55 pm 12:55 Sunny 32 0 21 -6 64 64 NNE 3 6 30.3 1026 10 16.09344 0 0
1:15 pm 13:15 Sunny 34 1 23 -5 65 65 NE 3 6 30.27 1025 10 16.09344 0 0
1:35 pm 13:35 Sunny 34 1 23 -5 65 65 Calm 30.27 1025 10 16.09344 0.02 0.508
1:55 pm 13:55 Sunny 34 1 23 -5 65 65 Calm 30.27 1025 10 16.09344 0.04 1.016
2:15 pm 14:15 Sunny 36 2 23 -5 60 60 Calm 30.27 1025 10 16.09344 0.04 1.016
2:35 pm 14:35 Sunny 34 1 25 -4 70 70 Calm 30.27 1025 10 16.09344 0.08 2.032
2:55 pm 14:55 Sunny 34 1 27 -3 75 75 Calm 30.27 1025 10 16.09344 0.11 2.794
3:15 pm 15:15 Sunny 36 2 27 -3 70 70 Calm 30.27 1025 10 16.09344 0.02 0.508
3:35 pm 15:35 Sunny 34 1 27 -3 75 75 Calm 30.24 1024 10 16.09344 0.05 1.27
3:55 pm 15:55 Sunny 34 1 27 -3 75 75 Calm 30.24 1024 10 16.09344 0.07 1.778
4:15 pm 16:15 Sunny 32 0 25 -4 75 75 WNW 5 7 30.24 1024 10 16.09344 0 0
4:35 pm 16:35 Sunny 34 1 25 -4 70 70 NNW 5 7 30.24 1024 10 16.09344 0.01 0.254
4:55 pm 16:55 Sunny 32 0 23 -5 69 69 NW 3 6 30.24 1024 10 16.09344 0.01 0.254
5:15 pm 17:15 Clear 32 0 23 -5 69 69 Calm 30.24 1024 10 16.09344 0 0
5:35 pm 17:35 Clear 32 0 25 -4 75 75 W 5 7 30.24 1024 10 16.09344 0 0
5:55 pm 17:55 Clear 30 -1 27 -3 86 86 Calm 30.24 1024 10 16.09344 0 0
6:15 pm 18:15 Clear 30 -1 27 -3 86 86 Calm 30.24 1024 10 16.09344 0 0
6:35 pm 18:35 Clear 30 -1 27 -3 86 86 Calm 30.27 1025 10 16.09344 0 0
6:55 pm 18:55 Clear 28 -2 27 -3 93 93 Calm 30.24 1024 10 16.09344 0 0
7:15 pm 19:15 Clear 28 -2 25 -4 86 86 Calm 30.24 1024 10 16.09344 0 0
7:35 pm 19:35 Clear 28 -2 27 -3 93 93 WNW 3 6 30.24 1024 10 16.09344 0 0
7:55 pm 19:55 Clear 27 -3 25 -4 93 93 WNW 3 6 30.24 1024 10 16.09344 0 0
8:15 pm 20:15 Clear 23 -5 23 -5 100 100 Calm 30.24 1024 10 16.09344 0 0
8:35 pm 20:35 Clear 25 -4 25 -4 100 100 Calm 30.24 1024 10 16.09344 0 0
8:55 pm 20:55 Clear 23 -5 23 -5 100 100 Calm 30.24 1024 7 11.265408 0 0
9:15 pm 21:15 Clear 23 -5 23 -5 100 100 Calm 30.24 1024 10 16.09344 0 0
9:35 pm 21:35 Clear 21 -6 21 -6 100 100 WNW 5 7 30.24 1024 7 11.265408 0 0
9:55 pm 21:55 Clear 19 -7 19 -7 100 100 WNW 7 11 30.27 1025 7 11.265408 0 0
10:15 pm 22:15 Clear 21 -6 21 -6 100 100 WNW 6 9 30.24 1024 10 16.09344 0 0
10:35 pm 22:35 Clear 19 -7 19 -7 100 100 WNW 3 6 30.27 1025 10 16.09344 0 0
10:55 pm 22:55 Clear 23 -5 23 -5 100 100 Calm 30.24 1024 10 16.09344 0 0
11:15 pm 23:15 Clear 21 -6 21 -6 100 100 Calm 30.24 1024 10 16.09344 0 0
11:35 pm 23:35 Clear 23 -5 23 -5 100 100 Calm 30.24 1024 7 11.265408 0 0
11:55 pm 23:55 Clear 19 -7 19 -7 100 100 Calm 30.27 1025 10 16.09344 0 0

Powered by AerisWeather